This is the latest recevied weather packets stored in our database for station/object WA9SDJ-13. If no packets are shown the sender has not sent any weather packets the latest 10 day(s).
| Time | Temp. | Humidity | Pressure | Rain* | Wind** | Luminosity | Snow |
|---|---|---|---|---|---|---|---|
| 1778359665 | 23.89° C | 62% | 1006.6 hPa | 0 mm | - | 812 W/m² | - |
| 1778359605 | 23.89° C | 61% | 1006.6 hPa | 0 mm | - | 765 W/m² | - |
| 1778359545 | 23.89° C | 60% | 1006.6 hPa | 0 mm | - | 756 W/m² | - |
| 1778359485 | 23.89° C | 61% | 1006.7 hPa | 0 mm | - | 760 W/m² | - |
| 1778359425 | 23.89° C | 62% | 1006.6 hPa | 0 mm | - | 758 W/m² | - |
| 1778359365 | 23.89° C | 63% | 1006.6 hPa | 0 mm | - | 767 W/m² | - |
| 1778359305 | 23.89° C | 62% | 1006.7 hPa | 0 mm | - | 797 W/m² | - |
| 1778359245 | 23.89° C | 61% | 1006.6 hPa | 0 mm | - | 811 W/m² | - |
| 1778359185 | 23.89° C | 61% | 1006.6 hPa | 0 mm | - | 835 W/m² | - |
| 1778359125 | 23.89° C | 61% | 1006.6 hPa | 0 mm | - | 266 W/m² | - |
| 1778359065 | 23.89° C | 61% | 1006.6 hPa | 0 mm | - | 137 W/m² | - |
| 1778359005 | 23.89° C | 63% | 1006.6 hPa | 0 mm | - | 798 W/m² | - |
| 1778358945 | 23.89° C | 63% | 1006.6 hPa | 0 mm | - | 775 W/m² | - |
| 1778358885 | 23.89° C | 64% | 1006.5 hPa | 0 mm | - | 774 W/m² | - |
| 1778358825 | 23.89° C | 64% | 1006.5 hPa | 0 mm | - | 767 W/m² | - |
| 1778358765 | 23.89° C | 64% | 1006.6 hPa | 0 mm | - | 760 W/m² | - |
| 1778358705 | 23.33° C | 61% | 1006.5 hPa | 0 mm | - | 763 W/m² | - |
| 1778358645 | 23.33° C | 61% | 1006.5 hPa | 0 mm | - | 763 W/m² | - |
| 1778358584 | 23.33° C | 63% | 1006.5 hPa | 0 mm | - | 767 W/m² | - |
| 1778358525 | 23.33° C | 64% | 1006.6 hPa | 0 mm | - | 772 W/m² | - |
| 1778358464 | 23.33° C | 62% | 1006.5 hPa | 0 mm | - | 774 W/m² | - |
| 1778358405 | 23.33° C | 64% | 1006.5 hPa | 0 mm | - | 774 W/m² | - |
| 1778358345 | 23.33° C | 64% | 1006.4 hPa | 0 mm | - | 774 W/m² | - |
| 1778358285 | 23.33° C | 61% | 1006.5 hPa | 0 mm | - | 761 W/m² | - |
| 1778358225 | 23.33° C | 60% | 1006.5 hPa | 0 mm | - | 758 W/m² | - |
* Rain latest hour (hover to see other rain measurements)
** Current wind speed in m/s (hover to see current wind gust speed)